Vorticity
4 3 4 4 3 1 2 1 1 1 3 6 -1 8 7 -2 15 44 42 3 -3 3 4 7 3 6 4 6 6 5 8 7 10 9 7 5 6 7 7 8 7 9 8 7 8 7 6 6 9 9 8 7 7 6 5 8 9 9 9 9 10 9 8 7 7 7 8 8 7 7 7 7 6 5 6 6 5 4 3 2 2 3 5 6 5 5 7 7 8 7 7 7 7 10 10 10 11
3 3 4 4 3 1 1 2 2 5 5 4 2 6 7 18 41 48 29 1 -2 3 3 5 4 5 4 6 7 6 7 8 10 8 7 5 7 7 7 7 6 8 7 8 8 8 6 6 8 8 9 8 6 6 7 8 8 9 9 9 9 8 7 7 6 6 6 6 6 5 5 6 5 5 5 5 4 4 3 2 3 4 5 6 5 6 7 6 8 7 8 9 8 10 10 9 12
1 1 3 2 2 2 3 3 3 10 5 4 3 1 21 48 50 28 11 3 0 3 4 4 4 4 5 6 6 7 7 9 9 8 8 6 8 7 7 7 6 8 7 8 7 6 8 8 8 7 7 7 7 6 7 7 7 8 8 8 7 7 6 6 5 5 6 5 5 4 4 5 5 5 5 7 5 4 4 3 4 4 6 7 6 5 5 5 6 5 8 10 11 12 10 8 11
2 1 2 2 3 4 6 6 7 12 6 6 2 9 41 40 21 9 3 3 1 4 5 3 4 4 4 5 5 5 7 9 9 8 7 7 8 7 8 6 6 7 6 8 6 3 6 8 6 6 5 5 6 6 6 7 8 8 8 8 7 7 5 5 5 4 5 5 5 4 5 5 7 7 6 7 5 5 5 5 7 7 9 11 8 5 4 5 5 6 9 8 9 11 10 9 11
2 1 3 4 6 5 8 11 11 12 6 8 4 17 34 8 1 10 1 -1 1 7 6 4 5 5 5 5 5 6 7 8 8 8 7 7 9 8 8 6 6 7 7 8 8 4 4 7 5 5 5 5 6 5 6 6 8 8 8 8 7 7 5 5 5 5 5 5 5 4 6 6 7 8 8 9 7 7 9 10 12 12 12 11 7 5 6 7 7 9 10 9 10 11 11 9 9
4 3 5 5 7 7 13 14 11 11 6 7 4 18 20 -3 5 10 -1 -1 3 7 5 4 5 6 6 5 6 7 7 8 8 7 7 8 9 9 8 6 5 6 6 6 7 6 5 6 6 5 5 5 5 5 6 6 7 7 8 8 7 7 7 6 5 5 6 6 6 5 7 7 7 7 10 12 10 9 11 11 11 11 9 6 5 5 7 8 8 11 10 11 12 10 11 11 11
4 4 4 6 7 8 15 12 8 7 5 3 2 26 24 1 7 7 0 -1 0 3 4 6 4 5 5 5 6 8 9 7 7 6 6 9 9 9 8 6 5 5 6 5 5 6 6 6 6 6 6 6 6 5 5 6 6 7 8 8 7 7 7 7 6 6 7 8 7 7 7 8 8 6 9 12 12 11 10 9 9 9 6 5 7 8 8 8 10 13 11 10 9 9 10 13 14
3 3 3 6 6 9 12 3 2 2 5 2 3 35 28 2 8 7 2 0 -2 -3 3 7 4 5 5 6 7 9 11 7 6 5 6 9 10 9 8 7 5 6 5 5 5 5 6 7 7 6 7 7 6 6 6 6 6 6 7 8 8 7 8 7 6 6 6 7 7 9 9 9 10 9 9 10 10 10 9 9 9 9 7 8 10 10 10 9 10 10 10 8 6 8 10 10 11
4 3 2 6 6 9 5 -3 1 0 6 4 8 39 21 -1 8 6 5 3 -0 -3 3 6 3 7 6 6 7 9 10 7 7 5 6 9 10 8 7 6 5 6 5 6 6 5 6 7 7 7 7 8 7 7 6 6 5 5 6 8 8 7 7 7 7 7 7 7 8 10 9 9 11 11 11 10 7 6 8 10 9 11 11 12 11 9 9 9 7 7 8 8 7 9 10 10 10
4 4 2 3 6 8 4 0 1 -0 8 6 18 37 10 -1 7 4 8 4 3 4 4 5 3 6 5 6 7 9 9 7 7 6 6 8 10 8 6 6 5 5 5 6 6 6 7 7 7 7 8 7 7 7 6 6 5 6 7 7 8 8 7 7 8 7 7 8 9 9 8 8 9 8 9 9 6 5 8 8 7 9 11 11 9 8 8 8 8 9 8 8 9 10 11 11 12
3 4 2 2 6 6 5 2 1 5 9 6 21 31 4 2 7 3 9 6 6 5 3 6 4 4 4 5 7 8 8 6 7 6 6 8 10 8 5 5 5 5 5 6 6 6 6 7 7 6 7 7 7 6 6 6 6 7 7 7 8 8 8 8 8 7 8 8 8 7 6 9 8 6 7 8 6 4 5 5 5 6 8 9 8 7 7 7 7 8 7 8 9 9 10 10 11
2 5 2 3 7 5 5 0 1 9 10 12 24 28 9 2 4 3 7 5 6 5 4 6 3 4 5 5 7 8 6 5 6 6 6 8 9 7 6 5 5 6 5 5 5 6 6 7 7 6 7 7 6 6 5 6 6 7 7 8 7 7 7 8 7 6 7 6 8 7 5 8 8 6 7 8 6 4 4 5 4 5 7 8 7 6 5 7 7 8 7 7 7 9 9 10 13
2 7 3 4 6 3 4 -1 4 12 14 22 23 23 12 -1 2 6 7 5 5 6 4 5 3 4 5 6 8 7 6 5 4 5 7 8 9 7 5 5 5 5 5 5 5 6 7 7 7 6 7 7 6 6 6 6 6 6 7 8 7 6 6 8 7 6 6 6 8 9 6 8 8 7 7 7 8 7 5 4 4 7 8 7 7 6 4 5 7 8 8 8 9 10 9 11 13
4 6 3 4 4 3 3 0 11 17 19 35 35 26 13 0 4 4 5 6 5 6 3 4 5 3 5 7 8 7 6 5 3 4 7 8 8 7 5 5 5 5 5 5 6 6 6 7 7 7 7 7 7 6 6 7 7 7 7 7 8 9 7 7 7 6 7 7 9 9 7 8 8 7 7 8 8 7 5 6 7 9 8 6 6 5 4 5 7 8 8 10 11 9 9 10 12
6 4 5 3 4 6 2 5 19 22 28 50 49 26 7 1 5 2 3 4 4 7 5 4 3 2 2 4 10 10 6 5 4 4 6 8 8 7 5 5 6 5 6 5 6 5 6 7 7 7 7 7 7 6 7 7 8 7 7 6 8 9 8 8 6 6 8 8 8 7 6 7 9 7 7 8 7 6 6 8 9 8 7 6 5 4 5 6 6 9 9 8 10 10 10 11 12
5 4 6 3 5 6 0 11 20 17 23 34 28 11 4 3 4 3 3 3 4 6 5 4 3 3 1 2 10 11 8 6 5 5 5 8 8 7 6 5 6 6 6 6 6 6 6 7 7 7 8 8 7 7 7 7 8 8 8 7 7 7 8 10 10 10 11 10 9 9 8 9 10 7 6 7 7 7 7 6 6 7 7 6 6 5 5 5 6 9 9 6 7 8 10 12 12
6 5 6 2 5 4 3 16 13 6 9 11 10 7 4 3 4 4 3 4 6 6 4 4 4 5 2 1 7 11 11 8 6 5 5 8 7 6 6 5 6 6 6 6 6 6 6 6 7 7 7 8 8 8 8 7 7 7 8 7 7 7 8 10 11 10 9 9 9 10 9 7 7 5 6 6 6 6 5 4 4 6 8 7 7 7 6 6 7 9 9 9 7 6 10 12 11
6 6 7 3 6 6 6 11 4 5 8 6 8 7 4 3 3 2 4 4 2 6 4 3 5 4 3 2 6 12 12 9 7 5 5 8 8 7 6 5 6 6 6 6 6 6 6 7 6 6 7 8 8 7 7 7 7 7 8 7 7 7 7 8 8 8 8 7 8 8 8 7 6 6 6 5 5 6 5 4 4 7 9 6 5 7 7 7 8 9 10 12 12 9 12 13 11
6 6 7 4 7 6 5 8 7 7 7 7 6 4 4 2 1 2 5 4 0 5 4 3 6 3 2 2 5 10 12 10 6 4 6 8 9 7 6 6 6 6 6 6 6 6 6 6 5 6 6 7 7 6 8 7 7 8 7 6 7 7 7 7 7 7 7 6 7 7 7 7 6 6 6 6 6 6 5 5 5 7 8 7 5 4 7 7 7 8 6 8 11 11 14 15 13
6 5 6 5 7 6 4 10 12 6 4 7 5 3 3 -1 2 3 5 3 -1 4 2 3 8 5 2 3 4 7 12 11 5 4 5 7 8 8 7 6 6 6 6 6 6 6 6 6 6 7 7 7 7 6 8 8 8 8 6 6 7 7 7 7 7 6 6 7 6 6 7 6 6 6 7 7 6 6 6 6 6 7 7 7 5 4 5 4 4 5 3 4 7 9 12 14 14
5 5 7 6 6 7 4 6 10 10 7 5 4 5 3 2 4 1 5 6 2 2 1 3 8 7 4 4 3 4 12 12 7 5 3 5 7 7 7 5 5 6 6 6 6 6 6 6 7 7 7 7 7 6 8 8 8 8 6 6 6 6 6 6 6 7 6 7 6 6 6 6 6 6 6 7 6 6 6 7 7 8 9 8 6 6 6 5 5 6 5 4 6 7 8 10 12
4 5 9 8 6 7 4 2 4 12 13 6 6 7 4 4 3 1 7 10 6 1 1 6 7 4 6 7 3 4 12 13 9 6 3 5 6 7 6 5 5 5 5 6 5 6 6 6 7 7 7 7 7 7 8 9 8 7 7 6 6 6 6 6 7 7 7 7 7 7 7 7 7 6 7 7 8 8 8 9 10 10 10 9 8 7 6 5 6 6 6 5 5 7 7 7 9
7 5 7 7 8 7 4 1 1 8 13 13 12 10 8 5 1 1 7 8 3 -1 2 9 6 3 7 8 6 5 8 11 10 8 6 6 7 8 7 5 5 5 5 6 5 6 6 6 6 6 6 6 6 7 8 9 8 7 6 6 6 7 6 7 7 7 7 7 7 6 7 7 7 7 7 9 11 11 12 12 12 12 12 11 10 9 7 4 5 7 5 4 4 6 6 6 7
8 5 5 5 7 8 5 1 1 1 4 15 19 16 12 8 5 2 5 8 5 2 4 6 5 6 6 4 9 9 6 8 8 8 7 5 7 8 7 7 5 5 6 6 6 5 5 5 5 6 6 5 6 6 7 9 8 6 6 6 6 7 7 7 7 7 7 6 6 6 7 7 7 7 8 10 12 12 13 13 12 12 12 12 12 10 8 4 4 7 6 4 3 5 6 6 6
7 2 3 5 7 8 5 -0 3 1 -2 9 18 23 16 7 7 4 3 7 7 4 1 3 6 7 4 2 10 9 4 8 7 7 8 4 5 6 7 8 6 6 6 6 6 5 5 5 5 6 5 5 6 6 7 8 9 7 5 5 5 7 7 7 8 7 7 6 6 6 6 7 7 8 8 9 9 9 9 10 11 11 11 12 12 11 7 4 4 6 7 5 3 5 5 5 6
8 4 0 4 9 10 5 -0 2 2 4 7 13 24 20 5 4 4 6 7 6 4 1 4 5 6 5 3 8 7 3 8 9 9 10 8 5 5 6 8 7 6 6 6 6 6 5 4 5 6 5 5 5 6 7 8 9 7 5 5 5 6 6 6 7 7 8 7 6 5 5 6 7 8 8 7 7 6 6 7 9 10 11 11 11 10 8 5 3 5 6 6 5 5 5 6 6
12 8 -1 1 8 9 7 3 1 1 6 9 13 21 16 13 13 4 6 7 5 6 3 4 5 6 5 3 6 5 3 7 10 9 10 10 7 5 5 6 7 6 5 6 6 6 6 4 4 6 6 5 5 6 7 8 9 7 5 5 5 4 4 5 6 7 7 7 7 6 5 5 6 7 6 6 6 6 5 6 7 8 10 12 12 10 9 7 5 5 5 5 6 6 6 6 6
10 8 1 0 4 7 7 4 2 -1 2 7 16 20 8 15 20 3 3 7 4 6 4 4 6 5 4 6 6 3 4 6 9 10 10 13 10 6 5 6 8 7 6 5 5 6 6 5 4 5 6 5 5 6 7 7 8 7 5 4 5 3 3 3 4 6 7 7 7 6 6 5 5 6 5 5 6 5 5 5 6 7 8 10 12 12 11 10 8 7 6 5 6 7 7 6 6
9 8 4 3 4 6 3 -1 5 2 -1 1 9 17 10 17 20 1 1 6 3 7 5 3 6 6 5 7 5 2 6 5 6 9 8 11 12 10 7 6 8 9 7 6 5 6 7 6 3 4 6 6 5 5 7 7 7 8 5 4 3 3 2 3 3 4 6 7 7 7 6 5 5 5 5 5 5 5 5 5 6 6 6 7 9 11 12 11 10 9 7 6 7 8 9 8 7
11 9 9 6 3 6 1 -3 8 4 -1 0 2 9 10 18 19 -1 -0 7 4 6 6 4 6 6 5 6 5 3 6 5 4 7 8 8 10 12 9 6 6 8 9 7 5 6 8 6 3 4 6 6 6 5 7 7 7 8 6 4 2 2 2 2 2 3 4 6 7 7 7 6 5 5 4 4 5 4 4 5 6 6 6 5 6 8 10 10 10 9 9 8 8 9 10 10 8
12 10 11 7 3 8 6 -0 6 3 0 3 1 8 11 15 15 -0 1 8 4 5 5 4 5 5 5 6 4 4 7 7 4 6 8 8 9 10 9 7 6 6 9 9 7 7 8 7 3 3 6 6 6 6 7 8 8 8 6 5 2 2 2 2 2 2 3 4 6 7 8 7 6 5 5 4 4 4 4 5 6 7 6 5 5 6 7 8 9 9 9 9 8 9 9 9 8
14 12 11 10 0 2 9 3 2 3 6 5 -3 6 15 12 10 3 5 9 5 5 4 3 5 4 4 5 3 4 9 7 4 6 7 8 9 10 10 9 7 6 8 10 9 7 8 8 3 3 6 6 6 6 7 8 8 8 7 6 3 2 2 2 2 2 3 3 4 6 7 8 8 6 5 5 4 4 4 5 6 7 7 6 5 4 5 5 6 7 8 8 8 8 7 7 6
15 11 7 14 1 -2 14 6 -2 4 8 9 0 5 14 13 11 6 9 13 7 3 3 3 5 4 3 5 4 4 8 6 4 5 6 7 8 10 12 11 9 7 6 9 11 8 8 8 3 3 6 6 7 7 6 7 8 8 7 6 4 2 2 2 1 1 3 3 4 6 7 8 8 7 6 5 5 4 4 5 6 7 7 8 7 6 5 4 4 5 6 6 7 7 6 5 5
15 9 -0 15 7 -2 13 8 3 11 10 9 2 0 7 12 14 11 14 15 8 4 2 2 4 4 3 4 4 4 5 5 4 4 6 7 7 8 11 12 9 7 7 8 11 10 8 9 5 2 5 6 7 7 6 7 7 7 7 6 5 4 2 2 2 2 3 3 4 6 7 7 7 7 7 6 5 4 4 4 5 6 8 9 8 7 6 6 6 5 4 5 6 5 5 5 5
12 9 0 17 12 -4 6 9 5 7 12 13 4 3 5 8 15 18 21 15 7 4 0 2 4 4 4 4 4 4 4 4 3 5 8 7 7 7 8 11 10 6 8 7 10 13 9 9 7 2 4 6 7 7 7 6 7 7 7 7 6 5 3 3 4 3 3 3 4 6 7 7 7 6 7 7 6 5 5 4 5 5 7 9 8 7 7 7 7 7 6 6 6 5 5 4 4
9 11 5 12 9 1 4 10 5 -3 8 13 3 8 9 7 17 23 21 11 6 6 1 2 4 3 5 5 4 3 4 5 3 4 10 9 7 6 8 12 11 7 8 7 8 13 11 9 8 3 3 6 6 7 7 5 6 7 7 7 7 5 4 4 4 4 3 3 5 6 7 8 7 6 6 7 7 6 5 5 4 5 6 8 7 6 5 5 6 6 6 7 8 7 7 7 5
9 13 11 8 6 8 3 4 9 -3 0 9 -1 3 8 8 21 23 14 7 7 7 2 2 2 2 4 3 3 4 4 5 5 5 8 10 8 7 9 12 12 7 6 7 7 11 14 11 7 4 3 5 6 6 6 5 6 8 8 7 7 6 5 5 4 4 4 4 6 7 8 8 7 6 6 7 8 8 7 6 5 5 5 6 6 5 3 4 4 4 5 6 6 7 7 8 7
5 11 15 10 3 11 5 -0 11 1 -6 6 2 -2 4 8 17 18 10 8 9 5 2 3 3 3 4 2 1 3 6 5 5 5 6 10 8 6 9 11 12 8 5 7 7 10 16 13 7 5 3 3 5 5 5 5 6 8 8 7 7 7 6 5 5 4 4 5 5 7 8 7 7 6 6 7 8 9 9 8 6 6 6 5 5 4 3 3 3 4 5 5 5 6 7 6 6
2 7 13 11 2 6 7 2 8 5 -4 3 5 -2 1 4 10 16 12 8 7 3 3 4 5 6 5 2 1 4 6 4 4 5 5 8 8 6 7 10 13 10 5 7 7 9 16 16 8 4 3 3 4 5 5 6 6 8 8 7 6 6 5 5 5 5 5 5 5 7 8 7 7 7 7 7 8 9 10 10 8 7 7 6 5 4 4 3 3 4 5 6 6 7 7 7 6
2 6 8 10 7 1 6 8 6 6 -0 2 7 -0 -1 2 4 10 9 5 3 1 4 6 4 6 3 1 5 8 7 2 3 5 4 6 7 5 5 7 13 13 7 5 6 8 14 17 10 4 3 3 4 6 6 6 7 7 8 7 5 5 4 5 5 5 4 4 5 8 8 6 6 6 7 8 9 10 10 10 10 8 7 7 6 4 3 2 1 2 4 6 6 7 7 7 7
3 5 3 7 11 -0 3 10 5 5 3 2 5 1 1 3 1 4 5 3 4 2 3 4 2 3 2 0 6 12 10 6 6 5 4 6 6 4 4 5 10 13 9 5 5 6 11 17 14 6 3 3 3 5 7 6 6 6 7 7 5 5 5 6 6 5 5 5 6 8 8 6 5 6 6 7 9 10 11 11 10 9 8 8 8 7 5 2 1 2 3 5 6 6 7 7 7
6 4 1 5 11 4 3 8 5 4 6 5 3 3 7 4 -2 2 4 1 3 2 1 3 2 3 3 2 7 13 13 11 9 7 5 6 5 3 4 5 6 12 12 6 5 6 8 15 19 11 4 3 3 5 7 6 5 5 5 5 5 5 5 6 6 5 5 6 6 6 7 7 5 5 6 6 9 11 11 11 11 10 9 8 8 9 8 7 4 4 4 6 6 6 6 7 7
8 4 3 4 6 6 4 7 5 0 5 12 4 -3 6 12 6 1 2 1 -1 -0 2 3 1 2 4 3 6 11 10 8 7 8 8 8 8 6 5 5 4 8 13 9 5 6 6 12 21 16 6 4 3 4 7 6 5 5 4 3 4 5 5 5 5 5 6 7 6 5 6 6 5 4 5 5 8 10 10 11 11 11 10 9 8 8 9 10 8 7 7 6 7 7 6 6 7
11 8 5 2 1 4 5 5 6 -0 0 9 7 -5 -6 8 13 5 2 2 0 0 1 3 4 3 5 5 4 7 7 6 6 7 10 9 9 8 6 5 5 5 11 12 7 6 6 8 18 21 10 4 4 4 6 6 5 5 4 4 4 5 6 6 5 5 6 7 6 5 6 7 5 3 5 5 6 8 8 9 10 10 11 10 9 8 8 9 9 9 8 6 6 7 7 7 7
12 10 6 2 -0 2 3 3 5 4 3 4 7 2 -8 -0 11 7 7 6 2 5 4 4 7 5 6 8 6 6 4 5 4 3 6 7 7 9 7 5 5 6 9 13 10 6 5 5 14 23 15 5 4 3 5 6 5 4 4 6 6 6 7 7 6 6 7 7 7 6 6 6 5 4 5 6 5 6 6 6 7 8 9 10 10 9 8 9 10 10 9 7 6 7 8 8 7
10 12 9 5 2 1 1 2 3 3 7 6 7 10 1 4 16 8 7 11 5 6 8 7 8 7 7 8 7 7 5 6 7 5 4 5 5 6 7 5 5 7 8 10 13 10 7 5 11 23 19 7 4 3 4 5 5 5 5 6 7 6 6 7 7 7 8 7 6 7 7 6 6 4 5 6 4 4 5 6 6 7 8 9 8 8 8 8 9 10 10 8 8 8 9 10 9
8 11 12 9 5 3 0 1 3 1 4 3 5 13 -2 -5 21 18 3 10 10 7 9 7 8 9 8 9 9 9 8 6 6 6 6 5 4 3 6 6 5 9 9 9 15 15 10 6 11 21 20 10 5 3 3 3 5 7 7 8 8 5 6 7 7 8 8 7 7 7 8 6 5 4 4 5 4 4 6 7 7 7 8 8 7 7 7 8 8 8 10 9 8 9 10 11 10
7 8 12 12 8 8 4 1 3 0 3 2 0 13 0 -16 12 25 5 4 11 9 8 7 8 10 9 10 12 11 11 8 5 5 6 5 6 4 4 5 5 9 10 9 14 17 12 7 11 21 20 12 7 4 2 2 4 7 8 8 9 7 6 6 7 8 8 8 7 7 7 5 4 4 4 5 5 5 7 7 6 6 8 8 7 6 6 7 7 8 9 9 9 9 9 10 10
6 6 9 11 9 11 9 6 7 3 3 4 -3 7 9 -10 -3 16 11 4 8 9 7 7 9 9 9 10 12 12 12 11 7 5 6 8 9 6 4 5 6 6 7 8 11 16 14 7 10 21 20 13 9 5 3 1 1 6 8 8 9 7 6 6 7 7 8 8 8 8 7 5 4 5 6 6 7 7 7 6 5 5 7 8 8 7 6 6 7 8 9 9 9 10 10 11 11
5 7 7 9 9 9 10 8 9 10 7 7 4 5 7 -1 -5 6 11 6 6 9 7 7 9 7 8 11 12 13 13 12 10 5 6 10 10 7 5 5 6 5 6 8 10 14 15 8 9 19 18 14 11 6 3 2 1 4 7 8 7 7 6 6 7 7 8 8 9 8 6 5 6 7 7 7 7 9 7 6 5 5 6 8 9 9 7 6 7 8 9 9 9 10 11 11 10
4 8 6 7 7 6 12 14 11 12 11 11 14 10 3 4 4 3 7 7 7 9 6 6 7 5 7 11 13 13 12 11 10 6 5 9 9 8 8 6 5 7 6 7 8 11 15 11 8 15 17 15 12 7 4 2 0 2 6 7 6 6 6 6 6 8 8 8 8 8 6 5 6 6 7 7 8 9 7 6 6 6 7 8 9 10 8 7 7 7 9 10 9 9 10 10 9
5 7 5 5 7 2 3 15 21 18 13 15 21 15 4 8 11 5 3 5 6 8 7 5 5 4 5 10 13 12 12 10 7 5 4 6 7 9 11 9 6 7 6 5 7 8 13 12 8 10 15 16 14 8 4 3 1 1 4 6 5 5 5 6 6 8 9 9 8 7 6 5 5 5 6 6 6 6 5 5 7 7 8 9 9 10 9 8 7 7 8 9 8 7 8 9 9
9 8 7 4 5 2 -10 -5 15 15 6 13 18 9 2 5 11 10 6 3 5 6 7 6 3 3 5 8 11 9 10 10 8 6 5 3 3 7 15 14 7 6 6 4 5 6 9 13 9 7 11 16 18 11 3 2 3 3 4 5 6 4 4 6 7 8 9 10 9 8 7 5 4 4 4 4 4 4 3 4 7 8 9 9 9 9 8 7 7 7 8 8 7 6 6 7 9
11 6 10 8 4 9 -2 -10 5 9 3 14 21 11 8 8 5 9 8 3 4 5 5 6 3 2 5 6 7 6 7 10 9 9 7 4 3 4 13 16 8 5 5 3 3 3 6 11 10 8 8 12 18 15 6 2 2 4 5 5 6 4 4 6 8 9 8 9 9 8 7 5 5 3 3 4 4 3 4 4 6 8 9 8 8 8 8 7 6 7 7 7 6 5 5 6 8
11 6 8 6 2 9 7 -3 4 7 -1 10 25 19 17 18 10 9 10 4 3 4 3 5 5 3 5 6 6 6 6 10 11 12 11 8 6 4 8 14 11 5 3 2 1 0 3 8 11 10 7 9 16 17 9 3 2 3 4 5 5 4 4 6 8 9 8 7 8 8 7 6 5 3 3 4 3 4 4 5 6 8 9 8 8 8 8 7 6 6 7 7 6 5 5 6 7
10 12 8 5 3 6 8 3 6 12 4 1 13 11 6 14 15 10 11 6 2 4 3 4 8 6 5 5 6 6 6 7 9 12 13 12 10 7 6 10 12 8 5 3 1 0 2 5 9 12 9 6 13 18 13 5 2 2 3 4 4 4 3 4 8 9 8 7 7 7 8 7 5 4 4 3 4 4 5 5 6 8 8 8 7 8 7 6 6 6 6 8 8 6 5 5 6
8 11 9 9 5 2 7 4 -4 1 3 0 14 22 10 8 14 11 11 9 4 4 4 5 9 7 5 5 5 5 7 6 6 9 14 14 11 8 7 11 13 10 6 4 3 3 2 2 6 11 12 8 8 15 16 9 3 2 2 2 3 4 4 3 6 8 9 8 6 6 7 7 6 5 4 4 4 4 5 5 5 7 8 8 7 8 8 7 6 5 6 7 8 8 7 5 5
8 8 8 10 6 3 6 9 5 -1 -9 -15 5 32 24 7 12 15 12 12 10 7 5 5 9 8 5 5 4 4 6 6 5 5 10 13 13 10 9 11 12 10 8 7 7 5 3 3 5 7 11 12 8 10 15 13 7 2 2 2 3 4 4 3 4 7 9 8 6 6 6 6 7 6 5 5 5 4 4 5 6 6 7 8 6 7 8 8 7 6 6 6 7 10 9 6 5
Height
5907 5908 5908 5909 5909 5908 5908 5908 5908 5908 5907 5907 5906 5905 5903 5901 5901 5901 5903 5906 5907 5908 5908 5909 5909 5910 5910 5909 5909 5909 5909 5909 5909 5909 5909 5909 5908 5909 5909 5908 5908 5907 5908 5908 5908 5908 5908 5909 5909 5909 5910 5912 5913 5912 5909 5908 5909 5911 5912 5912 5913 5913 5913 5913 5913 5912 5913 5913 5913 5913 5913 5914 5914 5914 5915 5916 5916 5916 5916 5915 5916 5917 5918 5918 5916 5916 5916 5917 5917 5917 5916 5915 5915 5915 5915 5916 5916
5908 5908 5909 5909 5909 5908 5908 5908 5908 5908 5907 5907 5906 5904 5903 5900 5899 5900 5903 5906 5908 5909 5909 5909 5910 5910 5910 5910 5910 5910 5910 5910 5910 5910 5910 5910 5909 5909 5909 5909 5909 5908 5909 5909 5909 5908 5908 5909 5909 5909 5910 5911 5911 5910 5909 5910 5911 5912 5913 5913 5914 5914 5914 5914 5913 5913 5913 5914 5914 5914 5914 5915 5915 5915 5916 5917 5917 5917 5916 5917 5918 5919 5919 5919 5918 5917 5917 5918 5918 5918 5918 5917 5916 5916 5915 5915 5916
5908 5908 5909 5909 5909 5909 5909 5908 5908 5908 5908 5907 5907 5905 5903 5900 5900 5901 5904 5906 5908 5909 5909 5910 5910 5910 5910 5910 5910 5910 5910 5910 5910 5910 5911 5911 5910 5910 5910 5910 5910 5909 5910 5910 5910 5910 5910 5910 5910 5910 5911 5911 5911 5910 5911 5912 5913 5913 5914 5915 5915 5915 5915 5915 5914 5914 5914 5915 5915 5914 5915 5915 5915 5916 5918 5919 5919 5918 5918 5919 5920 5920 5919 5919 5919 5918 5919 5919 5918 5918 5918 5918 5917 5917 5916 5916 5916
5908 5908 5909 5909 5909 5909 5909 5908 5908 5908 5908 5908 5907 5906 5903 5902 5903 5904 5906 5907 5908 5909 5910 5910 5910 5910 5911 5910 5910 5910 5911 5911 5911 5911 5911 5911 5911 5911 5911 5911 5911 5911 5911 5911 5911 5911 5912 5912 5912 5912 5912 5912 5912 5912 5913 5914 5914 5915 5915 5916 5916 5916 5916 5916 5915 5915 5916 5916 5916 5915 5915 5916 5916 5917 5919 5920 5920 5919 5918 5919 5919 5919 5919 5920 5920 5919 5919 5918 5918 5919 5919 5918 5917 5917 5917 5916 5916
5908 5908 5909 5909 5909 5909 5908 5908 5908 5908 5908 5908 5908 5907 5906 5905 5906 5906 5907 5908 5909 5910 5910 5910 5910 5911 5911 5911 5911 5911 5911 5911 5911 5912 5912 5912 5912 5912 5912 5912 5911 5912 5912 5912 5912 5912 5913 5913 5913 5913 5914 5914 5914 5914 5915 5915 5916 5916 5917 5917 5917 5917 5917 5917 5916 5916 5918 5918 5917 5916 5917 5917 5917 5918 5919 5920 5920 5919 5918 5918 5919 5919 5919 5920 5920 5920 5919 5918 5919 5920 5919 5917 5917 5917 5917 5917 5917
5908 5908 5908 5909 5908 5908 5908 5908 5908 5908 5908 5908 5908 5908 5907 5906 5907 5908 5908 5909 5910 5910 5911 5911 5911 5911 5911 5911 5911 5912 5912 5912 5912 5913 5913 5913 5913 5913 5913 5912 5912 5913 5913 5913 5914 5914 5914 5914 5914 5914 5915 5915 5915 5916 5916 5916 5917 5917 5918 5918 5918 5918 5918 5918 5917 5917 5919 5920 5919 5918 5918 5918 5918 5919 5920 5920 5920 5919 5919 5919 5920 5919 5919 5920 5922 5921 5919 5918 5919 5921 5919 5917 5917 5917 5918 5918 5918
5908 5908 5908 5908 5908 5908 5908 5908 5908 5908 5908 5908 5907 5907 5907 5907 5908 5909 5909 5910 5910 5911 5911 5911 5911 5912 5911 5911 5912 5912 5912 5912 5913 5913 5914 5914 5914 5914 5914 5913 5913 5913 5914 5914 5914 5915 5915 5915 5915 5915 5916 5916 5917 5917 5917 5917 5917 5918 5919 5919 5919 5919 5919 5919 5918 5917 5920 5921 5920 5919 5918 5919 5920 5920 5921 5920 5920 5920 5920 5921 5921 5920 5919 5921 5923 5921 5918 5918 5920 5921 5920 5918 5917 5917 5918 5919 5919
5908 5908 5908 5908 5908 5908 5908 5908 5908 5907 5907 5907 5907 5906 5907 5907 5908 5909 5909 5910 5911 5911 5912 5912 5912 5912 5912 5912 5912 5913 5913 5913 5913 5914 5914 5915 5915 5915 5915 5914 5914 5914 5915 5915 5915 5916 5916 5916 5916 5917 5917 5918 5918 5918 5918 5918 5918 5919 5920 5920 5920 5920 5920 5920 5919 5918 5920 5922 5921 5920 5920 5921 5921 5921 5922 5922 5921 5921 5922 5923 5922 5920 5920 5922 5922 5920 5920 5921 5921 5921 5920 5919 5918 5918 5919 5920 5920
5908 5908 5908 5908 5908 5908 5908 5908 5907 5907 5907 5907 5907 5906 5907 5908 5908 5909 5909 5910 5911 5911 5912 5912 5912 5912 5913 5913 5913 5914 5914 5914 5914 5914 5915 5915 5916 5915 5915 5915 5915 5915 5916 5916 5916 5917 5917 5917 5918 5918 5919 5919 5919 5919 5919 5919 5919 5919 5921 5922 5922 5922 5921 5921 5920 5919 5921 5922 5922 5921 5921 5921 5922 5922 5923 5923 5922 5921 5923 5924 5924 5923 5924 5924 5923 5921 5923 5924 5923 5921 5920 5919 5919 5920 5920 5921 5921
5908 5908 5909 5908 5908 5908 5908 5908 5907 5907 5907 5907 5906 5906 5907 5908 5908 5909 5910 5910 5911 5912 5912 5912 5912 5913 5913 5914 5914 5914 5914 5915 5915 5915 5915 5916 5916 5916 5916 5916 5916 5916 5917 5917 5917 5918 5918 5918 5919 5919 5920 5920 5920 5920 5919 5919 5919 5920 5922 5923 5924 5923 5922 5922 5921 5921 5921 5922 5923 5923 5922 5921 5922 5923 5924 5924 5922 5921 5923 5925 5925 5924 5925 5925 5924 5924 5925 5925 5923 5922 5921 5921 5921 5922 5922 5922 5922
5907 5908 5908 5908 5908 5908 5908 5908 5907 5906 5906 5906 5905 5906 5907 5909 5909 5910 5910 5911 5911 5912 5912 5913 5913 5913 5914 5914 5914 5915 5915 5915 5916 5916 5915 5916 5917 5917 5916 5916 5917 5917 5917 5917 5918 5918 5919 5919 5920 5920 5921 5921 5921 5920 5920 5920 5920 5921 5921 5923 5925 5924 5923 5923 5923 5922 5922 5923 5924 5924 5923 5922 5922 5924 5925 5926 5924 5922 5922 5924 5925 5925 5925 5926 5927 5926 5924 5924 5923 5922 5922 5923 5924 5924 5924 5924 5924
5907 5908 5908 5908 5908 5908 5908 5907 5906 5905 5905 5904 5905 5905 5906 5908 5909 5909 5910 5911 5911 5912 5912 5913 5914 5914 5915 5915 5915 5915 5915 5916 5916 5916 5916 5917 5918 5918 5917 5917 5917 5918 5918 5918 5919 5919 5919 5920 5920 5921 5921 5921 5921 5921 5921 5921 5921 5921 5921 5922 5925 5925 5925 5924 5923 5923 5923 5923 5924 5925 5925 5924 5924 5924 5926 5926 5925 5924 5923 5925 5927 5927 5927 5927 5927 5925 5924 5923 5923 5923 5924 5925 5925 5925 5925 5926 5927
5907 5908 5908 5908 5908 5908 5908 5907 5905 5904 5903 5903 5903 5904 5905 5907 5908 5909 5910 5911 5911 5912 5913 5914 5914 5914 5915 5916 5916 5916 5916 5916 5917 5917 5917 5917 5918 5918 5918 5918 5918 5918 5919 5919 5920 5920 5920 5921 5921 5921 5922 5922 5922 5922 5922 5922 5922 5922 5921 5922 5924 5925 5926 5925 5925 5924 5924 5923 5923 5924 5925 5925 5925 5925 5926 5927 5928 5927 5926 5927 5928 5928 5927 5926 5926 5926 5925 5924 5924 5925 5926 5926 5926 5927 5928 5928 5929
5907 5907 5908 5908 5908 5908 5907 5906 5904 5903 5902 5901 5901 5903 5905 5907 5908 5909 5911 5911 5912 5913 5913 5914 5915 5915 5916 5916 5917 5917 5916 5917 5917 5918 5918 5918 5919 5919 5919 5919 5919 5919 5920 5920 5921 5921 5921 5921 5922 5922 5923 5923 5923 5923 5923 5923 5923 5923 5922 5922 5923 5924 5926 5927 5927 5928 5927 5926 5925 5924 5924 5925 5926 5927 5929 5929 5929 5927 5926 5926 5927 5927 5925 5924 5925 5925 5926 5926 5926 5927 5928 5928 5929 5929 5929 5929 5929
5906 5907 5907 5907 5907 5908 5907 5906 5905 5903 5901 5900 5901 5903 5906 5907 5909 5909 5911 5912 5912 5913 5914 5915 5915 5916 5917 5917 5918 5917 5917 5918 5918 5918 5919 5919 5920 5920 5920 5920 5920 5920 5921 5921 5922 5922 5922 5923 5923 5923 5923 5924 5924 5924 5924 5924 5924 5924 5924 5924 5924 5924 5925 5926 5928 5929 5929 5929 5928 5926 5925 5926 5927 5928 5929 5928 5928 5927 5926 5926 5926 5926 5925 5925 5925 5926 5927 5928 5929 5930 5930 5930 5930 5930 5929 5929 5929
5906 5907 5907 5907 5907 5907 5907 5906 5905 5904 5902 5902 5902 5905 5906 5907 5909 5909 5911 5912 5913 5914 5914 5915 5916 5916 5917 5918 5918 5918 5919 5919 5919 5919 5919 5920 5921 5921 5921 5921 5921 5921 5922 5922 5923 5923 5923 5924 5924 5924 5924 5925 5925 5925 5925 5926 5926 5926 5926 5926 5925 5925 5925 5925 5926 5927 5928 5929 5928 5927 5927 5926 5926 5927 5927 5927 5927 5927 5927 5927 5927 5927 5927 5928 5928 5927 5928 5929 5930 5931 5930 5929 5928 5928 5928 5928 5929
5905 5906 5907 5906 5906 5907 5907 5906 5906 5905 5904 5904 5905 5906 5906 5908 5909 5910 5911 5912 5913 5914 5914 5915 5916 5917 5917 5918 5919 5919 5920 5920 5919 5919 5920 5921 5921 5922 5922 5922 5922 5922 5923 5923 5924 5924 5924 5925 5925 5925 5925 5926 5926 5926 5926 5927 5927 5927 5928 5927 5927 5927 5927 5926 5926 5927 5927 5927 5927 5928 5928 5927 5927 5928 5928 5928 5928 5928 5928 5928 5928 5928 5929 5930 5931 5931 5931 5931 5931 5932 5932 5930 5929 5928 5928 5928 5928
5904 5905 5906 5906 5906 5907 5907 5907 5906 5906 5906 5905 5906 5907 5907 5908 5909 5910 5911 5912 5913 5914 5914 5914 5916 5917 5917 5918 5919 5920 5921 5920 5920 5920 5921 5922 5922 5923 5923 5923 5923 5923 5924 5925 5925 5925 5926 5926 5926 5926 5926 5927 5927 5927 5928 5928 5929 5929 5929 5929 5929 5929 5929 5929 5929 5929 5928 5928 5929 5929 5929 5929 5929 5930 5930 5930 5930 5930 5930 5930 5930 5929 5929 5930 5932 5933 5934 5934 5934 5934 5935 5933 5932 5931 5930 5930 5930
5904 5905 5905 5905 5906 5907 5907 5907 5907 5907 5907 5907 5907 5908 5908 5909 5909 5910 5910 5911 5912 5913 5913 5914 5916 5917 5917 5918 5919 5921 5921 5921 5921 5921 5922 5923 5923 5924 5924 5924 5924 5925 5925 5926 5926 5926 5927 5927 5927 5927 5927 5928 5928 5928 5929 5930 5930 5930 5931 5931 5931 5931 5931 5932 5932 5931 5931 5931 5931 5931 5931 5932 5932 5932 5932 5932 5932 5932 5932 5932 5932 5931 5930 5930 5931 5933 5934 5934 5934 5933 5933 5934 5934 5934 5934 5933 5933
5903 5904 5904 5905 5906 5906 5907 5907 5907 5907 5908 5908 5908 5908 5909 5909 5909 5910 5911 5911 5912 5912 5913 5914 5916 5917 5918 5918 5919 5921 5922 5921 5921 5921 5922 5923 5924 5924 5925 5925 5925 5926 5926 5927 5927 5927 5927 5928 5928 5928 5929 5929 5929 5930 5930 5931 5931 5932 5932 5932 5933 5933 5933 5933 5933 5933 5933 5933 5934 5934 5934 5934 5934 5934 5934 5935 5935 5935 5934 5934 5934 5933 5933 5932 5931 5932 5932 5932 5931 5930 5931 5932 5933 5934 5934 5934 5934
5902 5903 5904 5904 5905 5906 5907 5907 5907 5908 5908 5908 5909 5909 5909 5909 5910 5910 5911 5912 5912 5913 5914 5915 5916 5917 5918 5918 5918 5920 5922 5922 5921 5922 5923 5923 5924 5924 5925 5926 5926 5927 5927 5927 5928 5929 5929 5929 5929 5929 5930 5930 5931 5931 5932 5932 5932 5933 5933 5934 5934 5934 5935 5935 5935 5935 5935 5936 5936 5936 5936 5936 5936 5936 5937 5937 5937 5937 5936 5936 5936 5936 5935 5935 5934 5933 5933 5932 5931 5931 5931 5932 5932 5933 5933 5933 5933
5901 5902 5903 5904 5905 5905 5906 5907 5907 5908 5908 5908 5909 5909 5909 5909 5910 5910 5912 5913 5913 5914 5915 5915 5917 5918 5919 5919 5919 5920 5922 5922 5922 5922 5923 5924 5925 5925 5926 5926 5927 5927 5928 5928 5929 5930 5930 5930 5930 5931 5931 5932 5932 5932 5933 5933 5934 5934 5934 5935 5936 5936 5936 5936 5936 5937 5937 5937 5938 5938 5938 5938 5938 5938 5939 5939 5939 5938 5938 5938 5938 5938 5937 5937 5936 5936 5935 5935 5934 5934 5934 5933 5933 5933 5934 5934 5934
5900 5901 5902 5903 5904 5905 5905 5906 5907 5907 5908 5908 5909 5909 5909 5909 5909 5910 5912 5913 5914 5914 5915 5916 5917 5918 5919 5919 5919 5920 5922 5923 5923 5923 5924 5925 5926 5926 5926 5927 5927 5928 5929 5929 5930 5931 5931 5931 5931 5932 5932 5933 5933 5933 5934 5935 5935 5935 5936 5936 5937 5937 5937 5937 5938 5938 5938 5939 5939 5939 5939 5940 5939 5939 5940 5940 5940 5940 5939 5939 5939 5939 5939 5939 5939 5939 5938 5938 5938 5937 5937 5936 5936 5936 5936 5936 5936
5898 5900 5901 5902 5903 5904 5904 5905 5905 5906 5907 5908 5908 5908 5908 5909 5910 5910 5911 5912 5913 5914 5915 5916 5916 5918 5919 5920 5920 5921 5922 5923 5923 5923 5924 5925 5926 5927 5927 5927 5928 5929 5930 5930 5931 5931 5932 5932 5933 5933 5933 5934 5934 5935 5935 5936 5936 5936 5937 5938 5938 5938 5939 5939 5939 5939 5940 5940 5940 5940 5941 5941 5941 5941 5941 5941 5941 5941 5941 5941 5941 5941 5941 5941 5941 5941 5941 5941 5941 5941 5940 5940 5939 5939 5939 5939 5939
5897 5898 5899 5901 5902 5903 5904 5904 5905 5906 5907 5907 5907 5907 5908 5909 5910 5910 5911 5912 5913 5914 5915 5915 5916 5918 5919 5920 5920 5921 5921 5922 5923 5923 5924 5925 5926 5926 5927 5928 5929 5929 5930 5931 5932 5932 5933 5933 5934 5934 5934 5935 5935 5936 5936 5936 5937 5938 5938 5939 5939 5940 5940 5940 5940 5941 5941 5941 5942 5942 5942 5942 5942 5942 5942 5943 5943 5943 5943 5942 5942 5942 5942 5943 5943 5943 5943 5943 5943 5943 5943 5943 5943 5942 5942 5941 5941
5895 5897 5898 5900 5901 5903 5903 5903 5904 5905 5906 5906 5907 5907 5907 5909 5909 5910 5912 5912 5913 5914 5914 5915 5916 5917 5918 5919 5920 5921 5922 5922 5923 5924 5924 5925 5926 5927 5927 5928 5929 5930 5931 5932 5932 5933 5934 5934 5935 5935 5935 5935 5936 5937 5937 5937 5938 5939 5939 5940 5940 5941 5942 5942 5942 5942 5943 5943 5943 5943 5943 5944 5944 5944 5944 5944 5944 5944 5944 5944 5944 5944 5944 5944 5944 5945 5945 5945 5945 5945 5945 5945 5945 5945 5944 5944 5944
5894 5896 5897 5899 5901 5902 5902 5903 5903 5904 5905 5906 5906 5907 5908 5908 5909 5910 5911 5912 5912 5913 5914 5915 5916 5917 5918 5919 5920 5921 5922 5923 5923 5924 5924 5925 5926 5926 5927 5928 5929 5930 5931 5932 5933 5934 5934 5935 5935 5936 5936 5936 5937 5938 5938 5938 5939 5939 5940 5941 5942 5942 5943 5943 5943 5944 5944 5944 5944 5944 5945 5945 5945 5945 5945 5946 5946 5946 5946 5946 5946 5946 5946 5946 5946 5946 5947 5947 5947 5947 5947 5947 5947 5947 5947 5946 5946
5893 5894 5896 5898 5900 5901 5902 5902 5903 5903 5904 5905 5906 5906 5907 5908 5908 5909 5910 5911 5912 5913 5914 5915 5916 5917 5918 5919 5920 5921 5922 5923 5924 5924 5925 5925 5926 5927 5927 5928 5929 5930 5931 5932 5933 5934 5935 5936 5936 5937 5937 5937 5938 5939 5939 5939 5940 5940 5941 5942 5943 5943 5944 5944 5945 5945 5945 5945 5946 5946 5946 5946 5947 5947 5947 5947 5947 5948 5948 5948 5948 5948 5948 5948 5948 5948 5948 5948 5948 5949 5949 5949 5949 5949 5949 5949 5949
5891 5893 5895 5897 5899 5899 5900 5901 5902 5903 5904 5905 5905 5905 5906 5906 5907 5907 5909 5909 5911 5912 5914 5915 5916 5917 5918 5919 5920 5920 5921 5922 5924 5924 5924 5925 5926 5927 5928 5928 5929 5930 5931 5932 5933 5934 5935 5936 5937 5937 5938 5938 5938 5939 5940 5940 5941 5941 5942 5943 5944 5944 5945 5946 5946 5946 5946 5947 5947 5947 5947 5948 5948 5948 5949 5949 5949 5949 5949 5949 5950 5950 5950 5950 5950 5950 5950 5950 5950 5950 5950 5951 5951 5951 5951 5951 5951
5889 5891 5894 5896 5897 5898 5899 5900 5901 5902 5903 5904 5905 5905 5905 5905 5906 5906 5908 5909 5910 5912 5913 5914 5915 5917 5918 5919 5920 5920 5921 5922 5923 5924 5924 5925 5926 5927 5928 5928 5929 5930 5931 5932 5933 5934 5935 5936 5937 5938 5938 5939 5939 5940 5941 5941 5942 5942 5943 5944 5945 5946 5946 5947 5947 5947 5948 5948 5948 5948 5949 5949 5949 5950 5950 5950 5951 5951 5951 5951 5951 5951 5951 5951 5951 5951 5951 5951 5952 5952 5952 5952 5952 5953 5953 5953 5953
5888 5890 5892 5895 5896 5897 5898 5899 5900 5901 5902 5903 5904 5904 5904 5905 5905 5906 5907 5908 5909 5911 5913 5914 5915 5916 5917 5918 5919 5920 5921 5921 5923 5923 5924 5924 5925 5926 5927 5928 5929 5930 5931 5932 5933 5934 5935 5936 5937 5938 5939 5939 5940 5941 5941 5942 5943 5943 5944 5945 5946 5946 5947 5948 5948 5948 5949 5949 5949 5950 5950 5950 5951 5951 5951 5952 5952 5952 5952 5952 5953 5953 5953 5953 5953 5953 5953 5953 5953 5954 5954 5954 5954 5954 5954 5955 5955
5887 5889 5892 5894 5895 5896 5897 5898 5899 5900 5901 5902 5903 5904 5904 5904 5904 5905 5906 5907 5909 5911 5912 5913 5914 5915 5916 5918 5919 5920 5921 5921 5922 5923 5923 5924 5925 5926 5927 5928 5929 5930 5931 5932 5933 5934 5935 5936 5937 5938 5939 5940 5940 5941 5942 5943 5944 5944 5945 5946 5947 5947 5948 5948 5949 5949 5949 5950 5950 5951 5951 5951 5952 5952 5953 5953 5953 5954 5954 5954 5954 5954 5954 5954 5954 5954 5954 5954 5955 5955 5955 5955 5955 5955 5956 5956 5956
5886 5888 5891 5892 5893 5894 5895 5897 5898 5898 5900 5901 5902 5903 5903 5902 5903 5904 5905 5906 5908 5910 5911 5912 5913 5914 5915 5917 5918 5919 5920 5921 5922 5922 5923 5924 5925 5926 5927 5928 5929 5930 5931 5932 5933 5934 5936 5936 5937 5939 5939 5940 5941 5942 5943 5944 5944 5945 5946 5946 5947 5948 5949 5949 5949 5950 5950 5950 5951 5951 5952 5952 5953 5953 5954 5954 5955 5955 5955 5955 5955 5955 5955 5955 5955 5956 5955 5956 5956 5956 5957 5957 5957 5957 5957 5957 5957
5885 5886 5888 5890 5892 5892 5893 5895 5896 5897 5898 5900 5901 5902 5901 5901 5902 5903 5904 5905 5907 5909 5910 5911 5913 5914 5915 5917 5918 5919 5920 5920 5921 5922 5923 5923 5925 5926 5927 5928 5929 5930 5931 5932 5933 5935 5936 5937 5938 5939 5940 5941 5941 5942 5943 5944 5945 5945 5946 5947 5947 5948 5949 5950 5950 5950 5951 5951 5951 5952 5952 5952 5953 5954 5954 5955 5956 5956 5956 5957 5957 5957 5957 5957 5957 5957 5957 5957 5957 5958 5958 5958 5958 5958 5959 5959 5959
5884 5885 5887 5889 5891 5891 5891 5893 5894 5896 5897 5899 5900 5901 5901 5901 5902 5903 5904 5905 5907 5908 5910 5911 5912 5914 5915 5916 5917 5918 5919 5920 5921 5922 5923 5923 5924 5925 5926 5927 5928 5930 5931 5932 5933 5935 5936 5938 5939 5939 5940 5941 5941 5942 5943 5944 5945 5946 5946 5947 5948 5949 5950 5950 5951 5951 5951 5952 5952 5952 5953 5953 5954 5954 5955 5955 5956 5957 5957 5958 5958 5958 5958 5958 5959 5958 5958 5959 5959 5959 5959 5959 5959 5959 5960 5960 5960
5880 5883 5886 5888 5890 5889 5889 5891 5893 5894 5896 5897 5899 5900 5901 5901 5901 5902 5904 5905 5907 5908 5910 5912 5913 5914 5915 5916 5917 5918 5919 5920 5921 5922 5923 5923 5924 5925 5926 5927 5928 5929 5931 5932 5933 5934 5936 5937 5939 5940 5940 5941 5941 5942 5943 5944 5945 5946 5947 5947 5948 5949 5950 5951 5951 5951 5952 5952 5952 5953 5953 5954 5954 5954 5955 5956 5957 5957 5958 5958 5959 5959 5959 5960 5960 5960 5960 5960 5960 5961 5961 5960 5960 5961 5961 5961 5961
5879 5882 5884 5886 5887 5887 5888 5890 5892 5893 5894 5896 5899 5900 5900 5901 5901 5903 5905 5906 5907 5909 5911 5912 5913 5913 5914 5915 5916 5917 5918 5919 5920 5921 5922 5923 5924 5925 5926 5926 5927 5929 5930 5932 5933 5934 5936 5937 5939 5940 5940 5941 5941 5942 5943 5944 5945 5946 5947 5948 5949 5950 5951 5951 5952 5952 5952 5953 5953 5953 5954 5954 5954 5955 5955 5956 5957 5958 5958 5959 5959 5960 5960 5960 5961 5961 5961 5961 5961 5962 5962 5962 5962 5962 5962 5962 5962
5879 5882 5883 5885 5886 5885 5886 5889 5891 5892 5894 5896 5898 5899 5901 5901 5902 5903 5904 5906 5907 5909 5911 5912 5913 5913 5913 5914 5915 5916 5917 5919 5920 5921 5922 5923 5924 5925 5926 5926 5927 5928 5929 5931 5932 5934 5935 5937 5938 5939 5940 5940 5941 5942 5943 5944 5946 5947 5948 5949 5949 5950 5951 5952 5952 5953 5953 5953 5953 5954 5954 5954 5955 5955 5956 5956 5957 5958 5958 5959 5960 5960 5961 5961 5961 5961 5962 5962 5962 5963 5963 5963 5963 5963 5963 5963 5963
5877 5879 5881 5884 5883 5883 5886 5889 5890 5891 5893 5894 5897 5899 5901 5902 5903 5903 5904 5906 5908 5909 5911 5912 5913 5914 5914 5914 5915 5916 5917 5919 5920 5920 5921 5923 5924 5924 5925 5926 5926 5928 5929 5930 5932 5933 5935 5936 5938 5939 5940 5941 5941 5942 5943 5945 5946 5948 5948 5949 5950 5950 5951 5952 5952 5953 5953 5954 5954 5954 5955 5955 5955 5955 5956 5956 5957 5958 5959 5959 5960 5960 5961 5961 5962 5962 5962 5963 5963 5964 5964 5964 5964 5964 5964 5964 5963
5874 5877 5880 5881 5881 5883 5886 5885 5887 5890 5891 5893 5896 5899 5901 5902 5903 5904 5905 5907 5908 5909 5910 5911 5913 5914 5915 5915 5915 5916 5917 5918 5919 5920 5921 5922 5923 5924 5925 5925 5926 5927 5929 5930 5931 5933 5934 5935 5937 5938 5939 5941 5942 5943 5944 5945 5947 5948 5948 5949 5950 5950 5951 5951 5952 5953 5954 5954 5954 5955 5955 5955 5955 5956 5956 5957 5957 5958 5959 5959 5960 5961 5961 5961 5962 5962 5963 5963 5964 5964 5965 5965 5965 5965 5965 5964 5964
5870 5874 5877 5877 5878 5881 5880 5882 5887 5889 5890 5893 5896 5899 5900 5901 5903 5904 5905 5907 5908 5909 5910 5910 5910 5912 5913 5914 5915 5916 5917 5917 5918 5919 5920 5921 5922 5923 5924 5925 5926 5927 5928 5929 5930 5932 5933 5934 5936 5937 5939 5940 5942 5943 5945 5946 5947 5947 5948 5949 5949 5950 5951 5952 5953 5953 5954 5954 5954 5955 5955 5956 5956 5956 5956 5957 5958 5958 5959 5960 5960 5961 5961 5962 5962 5963 5963 5964 5964 5964 5965 5965 5965 5965 5965 5965 5965
5867 5871 5873 5873 5876 5878 5878 5883 5888 5889 5890 5892 5895 5898 5899 5900 5902 5903 5905 5907 5908 5909 5909 5909 5909 5909 5911 5912 5913 5915 5916 5917 5918 5919 5920 5921 5922 5922 5924 5925 5926 5927 5928 5929 5930 5931 5933 5934 5935 5937 5938 5940 5942 5943 5945 5946 5946 5947 5947 5948 5949 5950 5951 5952 5953 5954 5954 5955 5955 5955 5955 5956 5956 5957 5957 5958 5958 5959 5959 5960 5961 5961 5961 5962 5963 5963 5963 5964 5964 5965 5965 5965 5965 5965 5966 5966 5966
5863 5866 5868 5871 5874 5876 5878 5883 5885 5887 5888 5888 5892 5896 5897 5899 5900 5902 5904 5905 5906 5907 5907 5907 5907 5908 5909 5909 5911 5913 5914 5914 5915 5917 5919 5921 5921 5922 5923 5924 5925 5926 5927 5929 5930 5931 5932 5933 5935 5936 5938 5939 5941 5943 5944 5945 5946 5946 5947 5947 5949 5950 5952 5953 5954 5954 5954 5955 5955 5955 5956 5956 5957 5957 5958 5958 5959 5959 5960 5960 5961 5961 5962 5963 5963 5963 5963 5964 5965 5965 5965 5966 5966 5966 5966 5966 5966
5859 5860 5864 5868 5871 5873 5876 5880 5882 5883 5883 5885 5891 5893 5894 5896 5897 5899 5901 5902 5904 5905 5905 5906 5907 5907 5908 5908 5910 5911 5912 5912 5914 5916 5918 5920 5921 5922 5923 5923 5924 5925 5927 5928 5930 5931 5932 5933 5934 5935 5937 5939 5940 5942 5944 5945 5945 5946 5947 5948 5949 5951 5952 5953 5953 5954 5954 5955 5955 5955 5956 5956 5957 5958 5958 5959 5959 5960 5961 5961 5961 5962 5962 5963 5963 5963 5964 5964 5965 5965 5966 5966 5966 5967 5967 5967 5967
5854 5857 5862 5865 5867 5869 5872 5876 5879 5879 5881 5886 5889 5890 5893 5895 5896 5897 5899 5900 5902 5903 5904 5905 5906 5907 5908 5908 5910 5911 5911 5913 5914 5915 5916 5917 5919 5920 5921 5922 5923 5925 5926 5927 5929 5930 5931 5932 5933 5935 5936 5938 5940 5941 5943 5944 5944 5945 5947 5948 5949 5951 5951 5952 5952 5953 5954 5954 5955 5955 5955 5956 5957 5958 5959 5959 5960 5960 5961 5962 5962 5963 5963 5964 5964 5964 5964 5965 5965 5966 5966 5966 5967 5967 5967 5968 5968
5851 5856 5861 5861 5864 5867 5869 5873 5875 5877 5881 5885 5886 5888 5893 5895 5894 5895 5896 5897 5900 5901 5903 5904 5905 5906 5907 5907 5909 5910 5912 5913 5913 5914 5914 5915 5916 5918 5919 5921 5922 5924 5926 5927 5928 5929 5930 5932 5933 5934 5935 5937 5939 5941 5942 5943 5944 5945 5947 5948 5949 5950 5950 5951 5952 5952 5953 5954 5955 5955 5955 5956 5957 5958 5959 5959 5960 5960 5961 5962 5963 5963 5964 5964 5964 5965 5965 5965 5966 5966 5967 5967 5967 5967 5968 5968 5968
5849 5855 5857 5858 5862 5864 5867 5870 5871 5874 5879 5882 5884 5887 5891 5893 5891 5891 5893 5895 5898 5900 5901 5902 5904 5905 5905 5906 5907 5909 5911 5912 5913 5914 5913 5913 5914 5916 5918 5920 5922 5923 5925 5926 5927 5929 5930 5931 5932 5933 5935 5936 5938 5940 5941 5942 5944 5945 5946 5947 5949 5949 5949 5950 5951 5952 5953 5954 5954 5955 5955 5956 5957 5958 5959 5959 5960 5960 5961 5962 5963 5963 5964 5964 5965 5965 5965 5966 5966 5967 5967 5967 5967 5967 5968 5969 5969
5848 5851 5853 5856 5859 5861 5864 5866 5867 5871 5877 5881 5882 5885 5889 5889 5887 5888 5891 5893 5896 5898 5900 5901 5903 5904 5905 5906 5907 5908 5910 5911 5912 5913 5914 5913 5913 5915 5917 5919 5921 5923 5924 5926 5927 5928 5929 5930 5931 5932 5934 5935 5937 5939 5940 5942 5943 5944 5945 5947 5948 5948 5949 5950 5951 5952 5953 5954 5954 5955 5955 5956 5957 5958 5959 5960 5960 5961 5961 5962 5963 5963 5964 5964 5965 5965 5965 5966 5966 5967 5967 5967 5968 5968 5968 5969 5969
5845 5848 5850 5853 5855 5858 5861 5862 5864 5869 5874 5878 5879 5883 5886 5884 5883 5886 5889 5891 5894 5897 5898 5900 5901 5902 5903 5904 5905 5907 5908 5909 5910 5912 5913 5913 5914 5915 5916 5917 5919 5922 5923 5924 5925 5927 5928 5929 5930 5932 5933 5934 5936 5937 5939 5941 5942 5943 5945 5946 5947 5948 5948 5949 5950 5951 5952 5953 5954 5955 5955 5956 5957 5958 5959 5960 5961 5962 5962 5962 5963 5963 5964 5965 5965 5965 5965 5966 5966 5967 5967 5968 5968 5968 5969 5969 5969
5842 5844 5847 5851 5853 5856 5857 5859 5862 5866 5870 5873 5877 5881 5882 5880 5882 5885 5886 5889 5893 5894 5897 5898 5900 5901 5902 5903 5904 5906 5907 5908 5909 5910 5911 5913 5914 5915 5915 5916 5918 5919 5921 5922 5924 5925 5926 5928 5929 5931 5932 5933 5935 5936 5938 5940 5941 5942 5944 5945 5946 5947 5948 5949 5950 5951 5951 5952 5953 5954 5955 5956 5957 5958 5959 5960 5961 5962 5962 5963 5963 5964 5964 5965 5965 5965 5965 5966 5966 5967 5967 5968 5968 5969 5969 5969 5969
5839 5842 5845 5848 5851 5854 5856 5858 5861 5864 5868 5871 5876 5879 5878 5877 5880 5883 5884 5888 5890 5893 5895 5897 5898 5900 5901 5902 5903 5904 5906 5907 5908 5909 5911 5912 5914 5914 5915 5916 5917 5918 5919 5920 5922 5924 5925 5927 5928 5929 5931 5932 5934 5935 5937 5938 5940 5941 5943 5944 5945 5946 5947 5948 5949 5950 5951 5952 5953 5954 5955 5956 5957 5958 5959 5960 5961 5962 5963 5963 5964 5964 5964 5965 5965 5965 5966 5966 5966 5967 5967 5968 5968 5969 5969 5969 5970
5836 5838 5841 5845 5848 5851 5854 5856 5859 5863 5867 5869 5873 5875 5873 5874 5878 5881 5883 5885 5888 5891 5893 5895 5897 5898 5899 5901 5902 5903 5904 5906 5907 5908 5909 5911 5912 5914 5915 5916 5917 5917 5918 5919 5921 5922 5924 5925 5926 5928 5930 5931 5933 5934 5935 5936 5938 5940 5942 5944 5945 5945 5946 5947 5948 5950 5950 5951 5952 5953 5954 5955 5956 5957 5958 5959 5960 5961 5962 5963 5964 5964 5965 5965 5965 5966 5966 5966 5967 5967 5968 5968 5969 5969 5969 5969 5969
5831 5835 5838 5840 5843 5846 5849 5851 5854 5860 5863 5865 5869 5869 5868 5872 5876 5878 5880 5882 5885 5889 5891 5893 5895 5896 5898 5900 5900 5902 5903 5904 5906 5907 5907 5909 5910 5912 5914 5915 5916 5917 5918 5919 5920 5921 5922 5923 5924 5926 5928 5929 5931 5933 5934 5935 5937 5939 5941 5943 5944 5945 5945 5946 5947 5948 5950 5951 5952 5953 5954 5954 5955 5956 5957 5958 5960 5961 5962 5963 5963 5964 5964 5965 5965 5966 5966 5967 5967 5967 5968 5969 5969 5969 5969 5969 5969
5828 5832 5834 5837 5841 5844 5848 5849 5852 5857 5861 5863 5865 5865 5866 5870 5872 5873 5876 5879 5882 5886 5888 5891 5893 5895 5897 5898 5899 5900 5901 5903 5904 5905 5906 5907 5908 5910 5912 5913 5914 5915 5916 5917 5917 5919 5920 5921 5923 5924 5926 5927 5929 5931 5932 5934 5936 5938 5940 5942 5943 5944 5945 5945 5946 5948 5949 5950 5951 5952 5953 5954 5954 5955 5956 5958 5959 5960 5961 5962 5963 5963 5964 5965 5965 5966 5966 5967 5968 5968 5969 5969 5969 5970 5970 5970 5970
5826 5828 5830 5834 5839 5842 5845 5847 5849 5854 5859 5861 5861 5861 5863 5865 5867 5870 5874 5877 5879 5883 5886 5888 5891 5893 5895 5896 5898 5899 5900 5902 5903 5904 5905 5906 5907 5908 5910 5911 5912 5913 5914 5915 5915 5917 5918 5920 5921 5922 5924 5925 5926 5928 5931 5933 5935 5936 5938 5940 5942 5943 5944 5945 5946 5947 5948 5949 5950 5951 5952 5953 5954 5954 5956 5957 5958 5959 5960 5961 5962 5963 5963 5964 5965 5965 5966 5967 5968 5968 5969 5969 5970 5970 5970 5971 5971
5823 5825 5828 5831 5835 5837 5840 5844 5847 5852 5857 5858 5857 5857 5858 5860 5863 5868 5871 5874 5877 5880 5883 5886 5888 5891 5893 5894 5896 5897 5899 5900 5901 5902 5903 5903 5905 5906 5908 5909 5910 5912 5913 5914 5915 5916 5917 5918 5919 5921 5922 5923 5925 5927 5929 5931 5933 5935 5936 5938 5940 5942 5943 5944 5945 5946 5947 5948 5948 5949 5951 5952 5953 5954 5955 5956 5957 5958 5960 5961 5962 5962 5963 5964 5964 5965 5966 5967 5968 5968 5969 5970 5970 5971 5971 5971 5971
5819 5822 5824 5827 5831 5834 5837 5840 5843 5848 5853 5856 5856 5855 5854 5857 5861 5864 5867 5871 5874 5877 5881 5884 5886 5888 5891 5892 5894 5896 5898 5898 5899 5899 5900 5901 5902 5904 5905 5907 5908 5910 5911 5913 5915 5916 5916 5917 5918 5919 5920 5921 5923 5925 5927 5929 5931 5933 5935 5937 5938 5940 5941 5943 5944 5945 5946 5946 5947 5948 5950 5951 5952 5953 5954 5955 5956 5957 5959 5960 5961 5962 5963 5963 5964 5965 5965 5966 5967 5968 5969 5970 5970 5971 5972 5972 5972
5816 5818 5820 5824 5828 5830 5834 5837 5840 5844 5847 5851 5854 5852 5850 5855 5859 5862 5865 5868 5871 5875 5878 5881 5884 5886 5888 5890 5892 5894 5896 5897 5897 5898 5898 5899 5901 5902 5903 5904 5906 5908 5909 5911 5913 5915 5916 5917 5917 5918 5919 5921 5922 5923 5925 5926 5929 5931 5933 5935 5936 5938 5939 5941 5942 5944 5944 5945 5946 5947 5948 5950 5951 5952 5953 5954 5955 5956 5958 5959 5960 5961 5962 5963 5963 5964 5965 5966 5967 5968 5969 5969 5970 5971 5972 5972 5972